LAN2011 VTBS-WSSS

Flight info

Callsign LAN2011
Flight time 1h 49m
Altitude 36000
Route BUT1F BUT Y11 PASVA Y514 NUFFA DCT PIBAP DCT PASPU
Aircraft B772/H-SDE2E3FGHIJ5LORVWXY/LB1D1

Departure

Time 2026-05-04 00:33
Airport Suvarnabhumi Airport (VTBS)

Arrival

Time 2026-05-04 02:23
Airport Singapore Changi Airport (WSSS)
Time Latitude Longitude Altitude Speed Heading
2026-05-04 00:00 13.68858 100.74513 21 ft 0 kts 105°
2026-05-04 00:18 13.68859 100.74508 21 ft 2 kts 105°
2026-05-04 00:19 13.68863 100.74493 21 ft 2 kts 105°
2026-05-04 00:19 13.68867 100.74478 21 ft 2 kts 111°
2026-05-04 00:19 13.68874 100.74464 21 ft 2 kts 126°
2026-05-04 00:19 13.68884 100.74453 21 ft 2 kts 138°
2026-05-04 00:20 13.68895 100.74444 21 ft 2 kts 150°
2026-05-04 00:20 13.68909 100.74437 21 ft 2 kts 162°
2026-05-04 00:20 13.68924 100.74433 21 ft 2 kts 174°
2026-05-04 00:20 13.68939 100.74433 21 ft 2 kts 186°
2026-05-04 00:21 13.68948 100.74435 21 ft 0 kts 194°
2026-05-04 00:21 13.68951 100.74435 21 ft 0 kts 195°
2026-05-04 00:23 13.68947 100.74434 21 ft 1 kts 195°
2026-05-04 00:23 13.68927 100.74429 21 ft 4 kts 194°
2026-05-04 00:23 13.68891 100.74419 21 ft 6 kts 194°
2026-05-04 00:24 13.68840 100.74406 21 ft 8 kts 194°
2026-05-04 00:24 13.68774 100.74389 21 ft 10 kts 194°
2026-05-04 00:24 13.68699 100.74369 21 ft 11 kts 195°
2026-05-04 00:24 13.68660 100.74300 21 ft 13 kts 273°
2026-05-04 00:25 13.68679 100.74204 21 ft 14 kts 283°
2026-05-04 00:25 13.68704 100.74100 21 ft 15 kts 284°
2026-05-04 00:25 13.68732 100.73989 21 ft 16 kts 285°
2026-05-04 00:25 13.68764 100.73870 21 ft 17 kts 285°
2026-05-04 00:26 13.68771 100.73843 21 ft 2 kts 284°
2026-05-04 00:26 13.68777 100.73821 21 ft 4 kts 285°
2026-05-04 00:26 13.68788 100.73782 21 ft 6 kts 285°
2026-05-04 00:26 13.68785 100.73728 21 ft 8 kts 243°
2026-05-04 00:27 13.68728 100.73698 21 ft 10 kts 197°
2026-05-04 00:27 13.68653 100.73676 21 ft 12 kts 194°
2026-05-04 00:27 13.68567 100.73654 21 ft 13 kts 194°
2026-05-04 00:27 13.68471 100.73629 21 ft 14 kts 192°
2026-05-04 00:28 13.68366 100.73601 21 ft 16 kts 195°
2026-05-04 00:28 13.68255 100.73572 21 ft 17 kts 194°
2026-05-04 00:28 13.68136 100.73541 21 ft 17 kts 194°
2026-05-04 00:28 13.68013 100.73508 21 ft 18 kts 194°
2026-05-04 00:29 13.67882 100.73474 21 ft 19 kts 194°
2026-05-04 00:29 13.67749 100.73439 21 ft 20 kts 194°
2026-05-04 00:29 13.67612 100.73403 21 ft 20 kts 194°
2026-05-04 00:29 13.67470 100.73367 21 ft 21 kts 194°
2026-05-04 00:30 13.67325 100.73330 21 ft 21 kts 194°
2026-05-04 00:30 13.67177 100.73291 21 ft 22 kts 194°
2026-05-04 00:30 13.67024 100.73249 21 ft 22 kts 195°
2026-05-04 00:30 13.66869 100.73209 21 ft 23 kts 194°
2026-05-04 00:31 13.66712 100.73167 21 ft 23 kts 194°
2026-05-04 00:31 13.66579 100.73132 21 ft 13 kts 194°
2026-05-04 00:31 13.66514 100.73113 21 ft 8 kts 210°
2026-05-04 00:31 13.66486 100.73069 21 ft 6 kts 263°
2026-05-04 00:32 13.66495 100.73016 21 ft 8 kts 293°
2026-05-04 00:32 13.66538 100.72965 21 ft 10 kts 324°
2026-05-04 00:32 13.66614 100.72955 21 ft 11 kts
2026-05-04 00:32 13.66787 100.72996 21 ft 60 kts 14°
2026-05-04 00:33 13.67499 100.73183 21 ft 144 kts 14°
2026-05-04 00:33 13.70178 100.73873 597 ft 231 kts 20°
2026-05-04 00:33 13.71639 100.74461 1809 ft 224 kts 19°
2026-05-04 00:34 13.73173 100.74948 2351 ft 237 kts 17°
2026-05-04 00:34 13.74780 100.75432 2991 ft 245 kts 17°
2026-05-04 00:34 13.76487 100.75941 3591 ft 259 kts 16°
2026-05-04 00:34 13.78269 100.76411 4293 ft 269 kts 15°
2026-05-04 00:35 13.80073 100.76875 5138 ft 271 kts 15°
2026-05-04 00:35 13.81903 100.77363 6003 ft 272 kts 19°
2026-05-04 00:35 13.83531 100.78285 6744 ft 273 kts 43°
2026-05-04 00:35 13.84642 100.79874 7480 ft 276 kts 68°
2026-05-04 00:36 13.85034 100.81802 7890 ft 280 kts 86°
2026-05-04 00:36 13.85048 100.83820 7954 ft 280 kts 90°
2026-05-04 00:36 13.85012 100.85805 7961 ft 279 kts 90°
2026-05-04 00:36 13.84986 100.87810 7962 ft 278 kts 90°
2026-05-04 00:37 13.84967 100.89796 7964 ft 278 kts 90°
2026-05-04 00:37 13.84951 100.91783 7967 ft 278 kts 90°
2026-05-04 00:37 13.84935 100.93794 7963 ft 279 kts 90°
2026-05-04 00:37 13.84772 100.95765 7953 ft 280 kts 105°
2026-05-04 00:38 13.83841 100.97540 7956 ft 286 kts 131°
2026-05-04 00:38 13.82239 100.98811 8559 ft 296 kts 147°
2026-05-04 00:38 13.80457 100.99840 9463 ft 294 kts 150°
2026-05-04 00:38 13.78607 101.00835 9888 ft 298 kts 150°
2026-05-04 00:39 13.76763 101.01811 9957 ft 298 kts 150°
2026-05-04 00:39 13.74909 101.02794 9966 ft 296 kts 151°
2026-05-04 00:39 13.73052 101.03780 9976 ft 312 kts 151°
2026-05-04 00:39 13.71007 101.04869 9974 ft 343 kts 151°
2026-05-04 00:40 13.68779 101.06054 9974 ft 369 kts 151°
2026-05-04 00:40 13.66373 101.07066 9966 ft 377 kts 162°
2026-05-04 00:40 13.63790 101.07558 9961 ft 379 kts 174°
2026-05-04 00:40 13.61137 101.07507 9960 ft 380 kts 186°
2026-05-04 00:41 13.58540 101.06924 9969 ft 381 kts 195°
2026-05-04 00:41 13.55990 101.06145 9966 ft 382 kts 195°
2026-05-04 00:41 13.53389 101.05367 10072 ft 393 kts 195°
2026-05-04 00:41 13.50750 101.04602 10902 ft 392 kts 195°
2026-05-04 00:42 13.48159 101.03863 11826 ft 389 kts 194°
2026-05-04 00:42 13.45534 101.03123 12538 ft 392 kts 194°
2026-05-04 00:42 13.42895 101.02386 13161 ft 397 kts 194°
2026-05-04 00:42 13.40215 101.01642 13814 ft 401 kts 194°
2026-05-04 00:43 13.37476 101.00884 14484 ft 405 kts 194°
2026-05-04 00:43 13.34792 100.99967 15115 ft 409 kts 203°
2026-05-04 00:43 13.32284 100.98570 15696 ft 415 kts 212°
2026-05-04 00:43 13.29889 100.96905 15881 ft 417 kts 214°
2026-05-04 00:44 13.28280 100.95799 15919 ft 423 kts 210°
2026-05-04 00:44 13.24639 100.94192 16894 ft 422 kts 195°
2026-05-04 00:44 13.21772 100.93627 17707 ft 420 kts 185°
2026-05-04 00:44 13.18875 100.93581 18311 ft 423 kts 175°
2026-05-04 00:45 13.15924 100.94009 18858 ft 427 kts 169°
2026-05-04 00:45 13.13002 100.94546 19456 ft 430 kts 169°
2026-05-04 00:45 13.10041 100.95095 20021 ft 434 kts 169°
2026-05-04 00:45 13.07019 100.95655 20598 ft 437 kts 169°
2026-05-04 00:46 13.04047 100.96206 21200 ft 439 kts 169°
2026-05-04 00:46 13.00997 100.96770 21781 ft 442 kts 169°
2026-05-04 00:46 12.97995 100.97326 22297 ft 445 kts 169°
2026-05-04 00:46 12.94910 100.97897 22799 ft 449 kts 169°
2026-05-04 00:47 12.91832 100.98467 23316 ft 453 kts 170°
2026-05-04 00:47 12.88712 100.99044 23809 ft 457 kts 170°
2026-05-04 00:47 12.85519 100.99635 24348 ft 460 kts 170°
2026-05-04 00:47 12.82342 101.00222 24870 ft 463 kts 170°
2026-05-04 00:48 12.79158 101.00810 25342 ft 466 kts 170°
2026-05-04 00:48 12.75952 101.01402 25794 ft 470 kts 170°
2026-05-04 00:48 12.72741 101.01995 26256 ft 473 kts 170°
2026-05-04 00:48 12.69449 101.02603 26712 ft 476 kts 171°
2026-05-04 00:49 12.66195 101.03203 27179 ft 479 kts 171°
2026-05-04 00:49 12.62907 101.03810 27604 ft 482 kts 171°
2026-05-04 00:49 12.59562 101.04427 28017 ft 485 kts 171°
2026-05-04 00:49 12.56191 101.05048 28431 ft 488 kts 171°
2026-05-04 00:50 12.52852 101.05663 28815 ft 491 kts 171°
2026-05-04 00:50 12.50558 101.06086 29091 ft 493 kts 171°
2026-05-04 00:50 12.46055 101.06915 29803 ft 493 kts 171°
2026-05-04 00:50 12.42692 101.07534 30459 ft 489 kts 171°
2026-05-04 00:51 12.40474 101.07942 30879 ft 487 kts 171°
2026-05-04 00:51 12.35978 101.08641 31609 ft 484 kts 177°
2026-05-04 00:51 12.32623 101.08717 32062 ft 484 kts 181°
2026-05-04 00:51 12.29226 101.08694 32564 ft 483 kts 181°
2026-05-04 00:52 12.25836 101.08665 33142 ft 481 kts 181°
2026-05-04 00:52 12.22448 101.08637 33715 ft 480 kts 181°
2026-05-04 00:52 12.19088 101.08609 34303 ft 478 kts 181°
2026-05-04 00:52 12.15751 101.08582 34884 ft 476 kts 181°
2026-05-04 00:53 12.12453 101.08554 35409 ft 475 kts 181°
2026-05-04 00:53 12.09127 101.08527 35841 ft 475 kts 181°
2026-05-04 00:53 12.05767 101.08499 35872 ft 477 kts 181°
2026-05-04 00:54 12.00230 101.08456 35868 ft 474 kts 181°
2026-05-04 00:54 11.92497 101.08395 35876 ft 476 kts 181°
2026-05-04 00:55 11.85851 101.08343 35884 ft 475 kts 181°
2026-05-04 00:55 11.79223 101.08292 35889 ft 475 kts 181°
2026-05-04 00:56 11.72574 101.08241 35889 ft 476 kts 181°
2026-05-04 00:56 11.65939 101.08195 35884 ft 475 kts 179°
2026-05-04 00:57 11.59392 101.09052 35889 ft 476 kts 170°
2026-05-04 00:57 11.52844 101.10273 35889 ft 474 kts 170°
2026-05-04 00:58 11.46352 101.11482 35888 ft 474 kts 170°
2026-05-04 00:58 11.39852 101.12691 35889 ft 475 kts 170°
2026-05-04 00:59 11.33347 101.13899 35889 ft 473 kts 170°
2026-05-04 00:59 11.26830 101.15109 35888 ft 474 kts 170°
2026-05-04 01:00 11.20330 101.16315 35888 ft 473 kts 170°
2026-05-04 01:00 11.13838 101.17518 35888 ft 473 kts 169°
2026-05-04 01:01 11.07313 101.18727 35888 ft 474 kts 170°
2026-05-04 01:01 11.00800 101.19933 35888 ft 474 kts 169°
2026-05-04 01:02 10.94290 101.21138 35888 ft 474 kts 169°
2026-05-04 01:02 10.87812 101.22337 35889 ft 473 kts 169°
2026-05-04 01:03 10.81281 101.23544 35889 ft 473 kts 169°
2026-05-04 01:03 10.74755 101.24751 35890 ft 473 kts 169°
2026-05-04 01:04 10.68247 101.25953 35892 ft 472 kts 169°
2026-05-04 01:04 10.61751 101.27153 35892 ft 473 kts 169°
2026-05-04 01:05 10.55242 101.28355 35893 ft 473 kts 169°
2026-05-04 01:05 10.48742 101.29554 35892 ft 472 kts 169°
2026-05-04 01:06 10.42248 101.30752 35892 ft 474 kts 169°
2026-05-04 01:06 10.35754 101.31949 35895 ft 474 kts 169°
2026-05-04 01:07 10.29247 101.33154 35894 ft 474 kts 169°
2026-05-04 01:07 10.22706 101.34367 35895 ft 475 kts 169°
2026-05-04 01:08 10.16209 101.35570 35893 ft 475 kts 169°
2026-05-04 01:08 10.09660 101.36782 35897 ft 477 kts 169°
2026-05-04 01:09 10.03054 101.38004 35896 ft 480 kts 169°
2026-05-04 01:09 9.96474 101.39221 35894 ft 479 kts 168°
2026-05-04 01:10 9.89923 101.40432 35894 ft 478 kts 169°
2026-05-04 01:10 9.83276 101.41661 35899 ft 481 kts 169°
2026-05-04 01:11 9.76676 101.42879 35910 ft 481 kts 169°
2026-05-04 01:11 9.70047 101.44104 35909 ft 483 kts 168°
2026-05-04 01:12 9.63438 101.45323 35910 ft 482 kts 169°
2026-05-04 01:12 9.56798 101.46549 35907 ft 482 kts 168°
2026-05-04 01:13 9.50159 101.47773 35908 ft 484 kts 169°
2026-05-04 01:13 9.43504 101.49000 35907 ft 483 kts 169°
2026-05-04 01:14 9.36842 101.50227 35909 ft 484 kts 169°
2026-05-04 01:14 9.30213 101.51448 35908 ft 483 kts 168°
2026-05-04 01:15 9.23579 101.52670 35911 ft 488 kts 168°
2026-05-04 01:15 9.16784 101.53921 35908 ft 501 kts 169°
2026-05-04 01:16 9.09806 101.55205 35909 ft 512 kts 168°
2026-05-04 01:16 9.02689 101.56514 35909 ft 520 kts 169°
2026-05-04 01:17 8.95571 101.57822 35908 ft 520 kts 169°
2026-05-04 01:17 8.88399 101.59142 35906 ft 520 kts 168°
2026-05-04 01:18 8.81227 101.60462 35904 ft 520 kts 168°
2026-05-04 01:18 8.74065 101.61780 35897 ft 520 kts 168°
2026-05-04 01:19 8.66923 101.63093 35889 ft 520 kts 168°
2026-05-04 01:19 8.59783 101.64405 35886 ft 521 kts 168°
2026-05-04 01:20 8.52596 101.65726 35889 ft 520 kts 169°
2026-05-04 01:20 8.45458 101.67036 35891 ft 520 kts 169°
2026-05-04 01:21 8.38305 101.68349 35893 ft 519 kts 169°
2026-05-04 01:21 8.31147 101.69663 35894 ft 519 kts 169°
2026-05-04 01:22 8.24022 101.70970 35895 ft 519 kts 169°
2026-05-04 01:22 8.16881 101.72280 35896 ft 520 kts 169°
2026-05-04 01:23 8.09755 101.73586 35902 ft 518 kts 169°
2026-05-04 01:23 8.02636 101.74892 35906 ft 518 kts 168°
2026-05-04 01:24 7.95528 101.76208 35905 ft 518 kts 168°
2026-05-04 01:24 7.88375 101.77535 35902 ft 518 kts 168°
2026-05-04 01:25 7.81247 101.78855 35905 ft 518 kts 168°
2026-05-04 01:25 7.74135 101.80172 35904 ft 518 kts 168°
2026-05-04 01:26 7.67004 101.81492 35908 ft 518 kts 168°
2026-05-04 01:26 7.59860 101.82814 35909 ft 519 kts 168°
2026-05-04 01:27 7.52750 101.84129 35910 ft 518 kts 168°
2026-05-04 01:27 7.45627 101.85446 35910 ft 519 kts 168°
2026-05-04 01:28 7.38487 101.86765 35910 ft 519 kts 168°
2026-05-04 01:28 7.31360 101.88081 35910 ft 519 kts 168°
2026-05-04 01:29 7.24270 101.89391 35910 ft 518 kts 168°
2026-05-04 01:29 7.17160 101.90703 35910 ft 518 kts 168°
2026-05-04 01:30 7.10055 101.92014 35910 ft 518 kts 168°
2026-05-04 01:30 7.02916 101.93331 35910 ft 518 kts 168°
2026-05-04 01:31 6.95806 101.94642 35910 ft 518 kts 168°
2026-05-04 01:31 6.88684 101.95955 35912 ft 518 kts 168°
2026-05-04 01:32 6.81584 101.97264 35906 ft 519 kts 168°
2026-05-04 01:32 6.74431 101.98582 35903 ft 518 kts 168°
2026-05-04 01:33 6.67300 101.99895 35904 ft 519 kts 168°
2026-05-04 01:33 6.60148 102.01212 35901 ft 519 kts 168°
2026-05-04 01:34 6.53013 102.02526 35901 ft 519 kts 168°
2026-05-04 01:34 6.45869 102.03841 35900 ft 519 kts 168°
2026-05-04 01:35 6.38718 102.05157 35902 ft 519 kts 168°
2026-05-04 01:35 6.31574 102.06471 35904 ft 520 kts 168°
2026-05-04 01:36 6.24452 102.07986 35906 ft 518 kts 162°
2026-05-04 01:36 6.17575 102.10223 35907 ft 518 kts 160°
2026-05-04 01:37 6.10720 102.12485 35904 ft 518 kts 160°
2026-05-04 01:37 6.03842 102.14751 35907 ft 518 kts 160°
2026-05-04 01:38 5.96966 102.17014 35908 ft 518 kts 160°
2026-05-04 01:38 5.90077 102.19280 35920 ft 518 kts 160°
2026-05-04 01:39 5.83224 102.21532 35918 ft 517 kts 160°
2026-05-04 01:39 5.76355 102.23789 35917 ft 517 kts 161°
2026-05-04 01:40 5.69561 102.26265 35916 ft 517 kts 156°
2026-05-04 01:40 5.62885 102.28984 35919 ft 517 kts 157°
2026-05-04 01:41 5.56170 102.31699 35921 ft 517 kts 157°
2026-05-04 01:41 5.49443 102.34403 35924 ft 517 kts 157°
2026-05-04 01:42 5.42751 102.37086 35931 ft 517 kts 157°
2026-05-04 01:42 5.36063 102.39764 35939 ft 516 kts 157°
2026-05-04 01:43 5.29385 102.42433 35949 ft 516 kts 157°
2026-05-04 01:43 5.22682 102.45111 35960 ft 517 kts 157°
2026-05-04 01:44 5.15933 102.47807 35961 ft 517 kts 157°
2026-05-04 01:44 5.09264 102.50468 35960 ft 517 kts 157°
2026-05-04 01:45 5.02539 102.53152 35955 ft 517 kts 157°
2026-05-04 01:45 4.92494 102.57159 35954 ft 516 kts 158°
2026-05-04 01:46 4.85773 102.59840 35957 ft 516 kts 158°
2026-05-04 01:46 4.79079 102.62508 35966 ft 516 kts 158°
2026-05-04 01:47 4.72389 102.65176 35975 ft 516 kts 158°
2026-05-04 01:47 4.65672 102.67853 35982 ft 516 kts 158°
2026-05-04 01:48 4.58952 102.70530 35988 ft 517 kts 158°
2026-05-04 01:48 4.52257 102.73197 35998 ft 517 kts 158°
2026-05-04 01:49 4.45552 102.75867 36010 ft 517 kts 158°
2026-05-04 01:49 4.38825 102.78547 36012 ft 517 kts 158°
2026-05-04 01:50 4.32151 102.81204 36012 ft 517 kts 158°
2026-05-04 01:50 4.25409 102.83888 36012 ft 517 kts 158°
2026-05-04 01:51 4.18673 102.86568 35998 ft 517 kts 158°
2026-05-04 01:51 4.11968 102.89236 35977 ft 518 kts 158°
2026-05-04 01:52 4.05237 102.91914 35959 ft 518 kts 158°
2026-05-04 01:52 3.98505 102.94592 35944 ft 518 kts 158°
2026-05-04 01:53 3.91782 102.97266 35957 ft 519 kts 158°
2026-05-04 01:53 3.85074 102.99933 35972 ft 518 kts 158°
2026-05-04 01:54 3.78314 103.02621 35981 ft 518 kts 158°
2026-05-04 01:54 3.71617 103.05283 35971 ft 518 kts 158°
2026-05-04 01:55 3.64862 103.07967 35960 ft 518 kts 158°
2026-05-04 01:55 3.58157 103.10632 35938 ft 518 kts 158°
2026-05-04 01:56 3.51441 103.13300 35922 ft 518 kts 157°
2026-05-04 01:56 3.44707 103.15975 35916 ft 518 kts 158°
2026-05-04 01:57 3.37963 103.18654 35913 ft 518 kts 158°
2026-05-04 01:57 3.31390 103.21495 35912 ft 514 kts 149°
2026-05-04 01:58 3.25720 103.25860 35911 ft 515 kts 134°
2026-05-04 01:58 3.20774 103.31033 35912 ft 514 kts 132°
2026-05-04 01:59 3.15864 103.36226 35911 ft 513 kts 132°
2026-05-04 01:59 3.10950 103.41428 35910 ft 513 kts 132°
2026-05-04 02:00 3.06072 103.46592 35846 ft 499 kts 132°
2026-05-04 02:00 3.03705 103.49098 35140 ft 492 kts 132°
2026-05-04 02:00 3.01388 103.51553 33745 ft 490 kts 132°
2026-05-04 02:01 2.99071 103.54007 32614 ft 482 kts 132°
2026-05-04 02:01 2.96780 103.56433 31889 ft 477 kts 132°
2026-05-04 02:01 2.94507 103.58841 30944 ft 480 kts 132°
2026-05-04 02:01 2.92218 103.61266 30290 ft 475 kts 132°
2026-05-04 02:02 2.89966 103.63650 29824 ft 468 kts 132°
2026-05-04 02:02 2.87785 103.66052 29312 ft 462 kts 129°
2026-05-04 02:02 2.85754 103.68494 28778 ft 457 kts 128°
2026-05-04 02:02 2.83732 103.70939 28255 ft 453 kts 129°
2026-05-04 02:03 2.81700 103.73389 27734 ft 449 kts 129°
2026-05-04 02:03 2.79713 103.75777 27205 ft 446 kts 129°
2026-05-04 02:03 2.77724 103.78164 26669 ft 443 kts 129°
2026-05-04 02:03 2.75765 103.80511 26141 ft 440 kts 129°
2026-05-04 02:04 2.73798 103.82864 25601 ft 437 kts 129°
2026-05-04 02:04 2.71859 103.85183 25070 ft 434 kts 129°
2026-05-04 02:04 2.69906 103.87517 24526 ft 430 kts 129°
2026-05-04 02:04 2.67982 103.89813 23986 ft 427 kts 129°
2026-05-04 02:05 2.66095 103.92066 23459 ft 424 kts 129°
2026-05-04 02:05 2.64199 103.94330 22922 ft 421 kts 129°
2026-05-04 02:05 2.62306 103.96587 22383 ft 418 kts 129°
2026-05-04 02:05 2.60446 103.98807 21858 ft 415 kts 129°
2026-05-04 02:06 2.58568 104.01047 21315 ft 413 kts 129°
2026-05-04 02:06 2.56744 104.03223 20781 ft 411 kts 129°
2026-05-04 02:06 2.54892 104.05409 20235 ft 408 kts 131°
2026-05-04 02:06 2.52802 104.07324 19688 ft 407 kts 141°
2026-05-04 02:07 2.50411 104.08817 19142 ft 407 kts 152°
2026-05-04 02:07 2.47759 104.09859 18589 ft 407 kts 162°
2026-05-04 02:07 2.44964 104.10396 18028 ft 407 kts 172°
2026-05-04 02:07 2.42112 104.10494 17469 ft 406 kts 177°
2026-05-04 02:08 2.39282 104.10500 16912 ft 405 kts 177°
2026-05-04 02:08 2.36477 104.10500 16355 ft 403 kts 178°
2026-05-04 02:08 2.33645 104.10501 15791 ft 401 kts 178°
2026-05-04 02:08 2.30873 104.10501 15150 ft 395 kts 178°
2026-05-04 02:09 2.28164 104.10500 14604 ft 380 kts 178°
2026-05-04 02:09 2.25585 104.10499 14195 ft 362 kts 178°
2026-05-04 02:09 2.23114 104.10499 13860 ft 345 kts 178°
2026-05-04 02:09 2.20751 104.10498 13591 ft 329 kts 178°
2026-05-04 02:10 2.18494 104.10498 13360 ft 313 kts 178°
2026-05-04 02:10 2.16354 104.10498 13034 ft 303 kts 178°
2026-05-04 02:10 2.14270 104.10499 12759 ft 298 kts 178°
2026-05-04 02:10 2.12198 104.10500 12469 ft 296 kts 178°
2026-05-04 02:11 2.10109 104.10500 12150 ft 295 kts 178°
2026-05-04 02:11 2.08057 104.10500 11851 ft 294 kts 178°
2026-05-04 02:11 2.06007 104.10500 11546 ft 293 kts 179°
2026-05-04 02:11 2.03955 104.10501 11239 ft 292 kts 179°
2026-05-04 02:12 2.01927 104.10501 10938 ft 291 kts 179°
2026-05-04 02:12 1.99881 104.10500 10631 ft 290 kts 179°
2026-05-04 02:12 1.97879 104.10493 10321 ft 290 kts 181°
2026-05-04 02:12 1.95841 104.10417 10015 ft 289 kts 181°
2026-05-04 02:13 1.93839 104.10333 9723 ft 288 kts 181°
2026-05-04 02:13 1.91849 104.10258 9452 ft 286 kts 181°
2026-05-04 02:13 1.89838 104.10184 9154 ft 285 kts 181°
2026-05-04 02:13 1.87851 104.10113 8846 ft 285 kts 181°
2026-05-04 02:14 1.85870 104.10043 8584 ft 283 kts 181°
2026-05-04 02:14 1.83875 104.09972 8280 ft 282 kts 181°
2026-05-04 02:14 1.81906 104.09902 7993 ft 281 kts 181°
2026-05-04 02:14 1.79934 104.09832 7715 ft 280 kts 181°
2026-05-04 02:15 1.77979 104.09763 7437 ft 279 kts 181°
2026-05-04 02:15 1.76028 104.09693 7148 ft 278 kts 181°
2026-05-04 02:15 1.74058 104.09624 6860 ft 277 kts 181°
2026-05-04 02:15 1.72135 104.09555 6607 ft 275 kts 181°
2026-05-04 02:16 1.70209 104.09486 6330 ft 274 kts 182°
2026-05-04 02:16 1.68288 104.09418 6058 ft 273 kts 182°
2026-05-04 02:16 1.66371 104.09351 5780 ft 272 kts 182°
2026-05-04 02:16 1.64477 104.09283 5542 ft 269 kts 181°
2026-05-04 02:17 1.62650 104.09202 5460 ft 254 kts 187°
2026-05-04 02:17 1.60943 104.08738 5128 ft 249 kts 201°
2026-05-04 02:17 1.59370 104.08092 4975 ft 233 kts 203°
2026-05-04 02:17 1.57947 104.07464 4827 ft 220 kts 205°
2026-05-04 02:18 1.56583 104.06834 4702 ft 205 kts 204°
2026-05-04 02:18 1.55322 104.06284 4580 ft 191 kts 202°
2026-05-04 02:18 1.54133 104.05789 4496 ft 176 kts 202°
2026-05-04 02:18 1.53008 104.05327 4262 ft 173 kts 202°
2026-05-04 02:19 1.51924 104.04878 4127 ft 162 kts 202°
2026-05-04 02:19 1.50883 104.04446 3719 ft 162 kts 202°
2026-05-04 02:19 1.49852 104.04015 3332 ft 161 kts 202°
2026-05-04 02:19 1.48811 104.03578 2945 ft 160 kts 202°
2026-05-04 02:20 1.47776 104.03145 2575 ft 158 kts 202°
2026-05-04 02:20 1.46762 104.02721 2500 ft 161 kts 202°
2026-05-04 02:20 1.45729 104.02286 2481 ft 160 kts 202°
2026-05-04 02:20 1.44690 104.01851 2264 ft 164 kts 202°
2026-05-04 02:21 1.43624 104.01405 1834 ft 176 kts 202°
2026-05-04 02:21 1.42457 104.00914 1185 ft 183 kts 202°
2026-05-04 02:21 1.41313 104.00435 830 ft 171 kts 202°
2026-05-04 02:21 1.40259 103.99993 623 ft 159 kts 202°
2026-05-04 02:22 1.39239 103.99566 413 ft 156 kts 203°
2026-05-04 02:22 1.38248 103.99151 204 ft 154 kts 202°
2026-05-04 02:22 1.37268 103.98753 74 ft 142 kts 202°
2026-05-04 02:22 1.36433 103.98405 43 ft 109 kts 204°
2026-05-04 02:23 1.35909 103.98171 39 ft 56 kts 204°
2026-05-04 02:23 1.35706 103.98085 40 ft 17 kts 202°
2026-05-04 02:23 1.35586 103.98036 38 ft 19 kts 202°
2026-05-04 02:23 1.35453 103.97982 38 ft 20 kts 202°
2026-05-04 02:24 1.35321 103.97926 39 ft 21 kts 203°
2026-05-04 02:24 1.35187 103.97868 40 ft 14 kts 204°
2026-05-04 02:24 1.35106 103.97834 40 ft 12 kts 200°
2026-05-04 02:24 1.35032 103.97834 41 ft 11 kts 147°
2026-05-04 02:25 1.34976 103.97902 40 ft 14 kts 113°
2026-05-04 02:25 1.34946 103.97972 39 ft 4 kts 116°
2026-05-04 02:25 1.34927 103.98016 39 ft 8 kts 112°
2026-05-04 02:25 1.34906 103.98067 39 ft 6 kts 111°
2026-05-04 02:26 1.34900 103.98095 39 ft 4 kts 91°
2026-05-04 02:26 1.34904 103.98128 40 ft 3 kts 78°
2026-05-04 02:26 1.34909 103.98145 40 ft 3 kts 75°
2026-05-04 02:26 1.34914 103.98161 40 ft 0 kts 72°
2026-05-04 02:27 1.34916 103.98168 41 ft 0 kts 71°